Time,TemperatureF,DewpointF,PressureIn,WindDirection,WindDirectionDegrees,WindSpeedMPH,WindSpeedGustMPH,Humidity,HourlyPrecipIn,Conditions,Clouds,dailyrainin,SoftwareType,DateUTC
2013-03-02 00:04:00,57.6,49.0,29.95,NNE,20,2.0,7.0,74,0.00,,,0.00,weatherlink.com 1.10,2013-03-02 05:04:00,
2013-03-02 00:19:00,57.6,49.0,29.95,NW,308,0.0,8.0,74,0.00,,,0.00,weatherlink.com 1.10,2013-03-02 05:19:00,
2013-03-02 00:34:00,57.5,49.0,29.95,WNW,291,2.0,6.0,74,0.00,,,0.00,weatherlink.com 1.10,2013-03-02 05:34:00,
2013-03-02 00:49:00,57.3,50.0,29.95,WNW,298,2.0,5.0,76,0.00,,,0.00,weatherlink.com 1.10,2013-03-02 05:49:00,
2013-03-02 01:05:00,57.1,50.0,29.95,WNW,285,2.0,10.0,76,0.00,,,0.00,weatherlink.com 1.10,2013-03-02 06:05:00,
2013-03-02 01:20:00,57.0,50.0,29.96,WNW,301,2.0,10.0,76,0.00,,,0.00,weatherlink.com 1.10,2013-03-02 06:20:00,
2013-03-02 01:35:00,56.8,49.0,29.95,NNW,327,2.0,8.0,76,0.00,,,0.00,weatherlink.com 1.10,2013-03-02 06:35:00,
2013-03-02 01:50:00,56.7,49.0,29.95,NW,323,5.0,9.0,74,0.00,,,0.00,weatherlink.com 1.10,2013-03-02 06:50:00,
2013-03-02 02:05:00,56.6,47.0,29.95,ESE,105,2.0,9.0,71,0.00,,,0.00,weatherlink.com 1.10,2013-03-02 07:05:00,
2013-03-02 02:20:00,56.6,48.0,29.95,NNE,25,3.0,8.0,72,0.00,,,0.00,weatherlink.com 1.10,2013-03-02 07:20:00,
2013-03-02 02:35:00,56.4,47.0,29.95,NNW,332,2.0,9.0,72,0.00,,,0.00,weatherlink.com 1.10,2013-03-02 07:35:00,
2013-03-02 02:50:00,56.1,47.0,29.95,West,280,0.0,9.0,72,0.00,,,0.00,weatherlink.com 1.10,2013-03-02 07:50:00,
2013-03-02 03:05:00,55.9,48.0,29.94,NW,307,0.0,8.0,74,0.00,,,0.00,weatherlink.com 1.10,2013-03-02 08:05:00,
2013-03-02 03:20:00,55.6,47.0,29.94,NNW,336,7.0,7.0,73,0.00,,,0.00,weatherlink.com 1.10,2013-03-02 08:20:00,
2013-03-02 03:35:00,55.5,47.0,29.95,NNW,338,1.0,7.0,72,0.00,,,0.00,weatherlink.com 1.10,2013-03-02 08:35:00,
2013-03-02 03:50:00,55.4,46.0,29.95,NNE,20,2.0,6.0,71,0.00,,,0.00,weatherlink.com 1.10,2013-03-02 08:50:00,
2013-03-02 04:05:00,55.4,45.0,29.95,NNW,347,3.0,8.0,68,0.00,,,0.00,weatherlink.com 1.10,2013-03-02 09:05:00,
2013-03-02 04:20:00,55.5,45.0,29.95,WNW,298,6.0,9.0,69,0.00,,,0.00,weatherlink.com 1.10,2013-03-02 09:20:00,
2013-03-02 04:35:00,55.3,46.0,29.95,NNW,339,0.0,8.0,70,0.00,,,0.00,weatherlink.com 1.10,2013-03-02 09:35:00,
2013-03-02 04:50:00,55.2,46.0,29.95,East,79,1.0,9.0,71,0.00,,,0.00,weatherlink.com 1.10,2013-03-02 09:50:00,
2013-03-02 05:05:00,55.0,46.0,29.95,NNW,330,3.0,9.0,72,0.00,,,0.00,weatherlink.com 1.10,2013-03-02 10:05:00,
2013-03-02 05:20:00,54.9,46.0,29.95,NNW,335,3.0,9.0,71,0.00,,,0.00,weatherlink.com 1.10,2013-03-02 10:20:00,
2013-03-02 05:35:00,54.8,46.0,29.96,WNW,285,1.0,6.0,73,0.00,,,0.00,weatherlink.com 1.10,2013-03-02 10:35:00,
2013-03-02 05:50:00,54.9,47.0,29.97,NE,48,0.0,7.0,74,0.00,,,0.00,weatherlink.com 1.10,2013-03-02 10:50:00,
2013-03-02 06:05:00,55.0,46.0,29.98,WNW,296,5.0,7.0,73,0.00,,,0.00,weatherlink.com 1.10,2013-03-02 11:05:00,
2013-03-02 06:20:00,55.0,45.0,29.98,NW,305,3.0,8.0,70,0.00,,,0.00,weatherlink.com 1.10,2013-03-02 11:20:00,
2013-03-02 06:35:00,54.8,45.0,29.99,NE,34,1.0,7.0,70,0.00,,,0.00,weatherlink.com 1.10,2013-03-02 11:35:00,
2013-03-02 06:50:00,54.7,45.0,29.99,WNW,291,1.0,8.0,70,0.00,,,0.00,weatherlink.com 1.10,2013-03-02 11:50:00,
2013-03-02 07:05:00,54.6,45.0,30.00,ENE,58,2.0,10.0,71,0.00,,,0.00,weatherlink.com 1.10,2013-03-02 12:05:00,
2013-03-02 07:20:00,54.2,45.0,30.00,NNE,22,0.0,9.0,71,0.00,,,0.00,weatherlink.com 1.10,2013-03-02 12:20:00,
2013-03-02 07:35:00,54.0,44.0,30.00,NE,37,2.0,5.0,70,0.00,,,0.00,weatherlink.com 1.10,2013-03-02 12:35:00,
2013-03-02 07:50:00,53.8,44.0,30.01,ENE,60,3.0,7.0,69,0.00,,,0.00,weatherlink.com 1.10,2013-03-02 12:50:00,
2013-03-02 08:05:00,53.7,43.0,30.01,WNW,300,1.0,9.0,68,0.00,,,0.00,weatherlink.com 1.10,2013-03-02 13:05:00,
2013-03-02 08:20:00,53.7,43.0,30.02,ENE,73,1.0,6.0,67,0.00,,,0.00,weatherlink.com 1.10,2013-03-02 13:20:00,
2013-03-02 08:35:00,53.8,43.0,30.01,NNE,20,0.0,5.0,66,0.00,,,0.00,weatherlink.com 1.10,2013-03-02 13:35:00,
2013-03-02 08:50:00,53.9,41.0,30.00,NE,46,0.0,7.0,63,0.00,,,0.00,weatherlink.com 1.10,2013-03-02 13:50:00,
2013-03-02 09:05:00,54.5,43.0,30.01,NE,56,0.0,2.0,66,0.00,,,0.00,weatherlink.com 1.10,2013-03-02 14:05:00,
2013-03-02 09:20:00,54.7,41.0,30.01,SE,146,0.0,2.0,60,0.00,,,0.00,weatherlink.com 1.10,2013-03-02 14:20:00,
2013-03-02 09:35:00,56.4,41.0,30.01,WNW,295,0.0,1.0,57,0.00,,,0.00,weatherlink.com 1.10,2013-03-02 14:35:00,
2013-03-02 09:50:00,56.8,40.0,30.00,WNW,292,2.0,7.0,53,0.00,,,0.00,weatherlink.com 1.10,2013-03-02 14:50:00,
2013-03-02 10:05:00,57.0,39.0,30.01,East,86,0.0,5.0,52,0.00,,,0.00,weatherlink.com 1.10,2013-03-02 15:05:00,
2013-03-02 10:20:00,57.4,39.0,30.01,WNW,282,2.0,4.0,51,0.00,,,0.00,weatherlink.com 1.10,2013-03-02 15:20:00,
2013-03-02 10:35:00,58.6,39.0,30.01,ENE,65,0.0,6.0,49,0.00,,,0.00,weatherlink.com 1.10,2013-03-02 15:35:00,
2013-03-02 10:50:00,59.6,39.0,30.00,North,352,1.0,6.0,46,0.00,,,0.00,weatherlink.com 1.10,2013-03-02 15:50:00,
2013-03-02 11:05:00,60.0,39.0,30.00,WNW,300,2.0,6.0,46,0.00,,,0.00,weatherlink.com 1.10,2013-03-02 16:05:00,
2013-03-02 11:20:00,61.2,40.0,30.00,North,356,9.0,9.0,46,0.00,,,0.00,weatherlink.com 1.10,2013-03-02 16:20:00,
2013-03-02 11:35:00,60.8,40.0,30.00,WNW,292,9.0,10.0,46,0.00,,,0.00,weatherlink.com 1.10,2013-03-02 16:35:00,
2013-03-02 11:51:00,61.3,40.0,29.99,NE,52,7.0,10.0,46,0.00,,,0.00,weatherlink.com 1.10,2013-03-02 16:51:00,
2013-03-02 12:05:00,62.4,41.0,29.98,NNE,29,1.0,11.0,46,0.00,,,0.00,weatherlink.com 1.10,2013-03-02 17:05:00,
2013-03-02 12:21:00,64.0,43.0,29.97,NW,321,2.0,10.0,47,0.00,,,0.00,weatherlink.com 1.10,2013-03-02 17:21:00,
2013-03-02 12:36:00,63.8,44.0,29.97,North,350,6.0,12.0,48,0.00,,,0.00,weatherlink.com 1.10,2013-03-02 17:36:00,
2013-03-02 12:51:00,63.2,44.0,29.97,ENE,71,3.0,14.0,49,0.00,,,0.00,weatherlink.com 1.10,2013-03-02 17:51:00,
2013-03-02 13:06:00,63.2,44.0,29.97,NNW,329,3.0,13.0,50,0.00,,,0.00,weatherlink.com 1.10,2013-03-02 18:06:00,
2013-03-02 13:21:00,64.0,46.0,29.96,NW,316,2.0,13.0,52,0.00,,,0.00,weatherlink.com 1.10,2013-03-02 18:21:00,
2013-03-02 13:36:00,64.7,45.0,29.95,NW,321,4.0,17.0,50,0.00,,,0.00,weatherlink.com 1.10,2013-03-02 18:36:00,
2013-03-02 13:51:00,64.3,46.0,29.94,NE,53,6.0,17.0,51,0.00,,,0.00,weatherlink.com 1.10,2013-03-02 18:51:00,
2013-03-02 14:06:00,64.6,46.0,29.94,NNW,340,7.0,18.0,52,0.00,,,0.00,weatherlink.com 1.10,2013-03-02 19:06:00,
2013-03-02 14:21:00,64.9,47.0,29.94,NW,323,4.0,14.0,52,0.00,,,0.00,weatherlink.com 1.10,2013-03-02 19:21:00,
2013-03-02 14:36:00,64.6,45.0,29.94,NE,40,4.0,20.0,49,0.00,,,0.00,weatherlink.com 1.10,2013-03-02 19:36:00,
2013-03-02 14:51:00,63.6,44.0,29.95,North,354,2.0,18.0,49,0.00,,,0.00,weatherlink.com 1.10,2013-03-02 19:51:00,
2013-03-02 15:06:00,63.9,44.0,29.94,NW,323,6.0,19.0,49,0.00,,,0.00,weatherlink.com 1.10,2013-03-02 20:06:00,
2013-03-02 15:21:00,63.5,43.0,29.95,NW,310,3.0,16.0,48,0.00,,,0.00,weatherlink.com 1.10,2013-03-02 20:21:00,
2013-03-02 15:36:00,63.1,43.0,29.94,NNW,335,3.0,16.0,49,0.00,,,0.00,weatherlink.com 1.10,2013-03-02 20:36:00,
2013-03-02 15:51:00,62.5,43.0,29.95,NNE,29,2.0,17.0,50,0.00,,,0.00,weatherlink.com 1.10,2013-03-02 20:51:00,
2013-03-02 16:06:00,62.7,43.0,29.95,NNW,328,3.0,11.0,49,0.00,,,0.00,weatherlink.com 1.10,2013-03-02 21:06:00,
2013-03-02 16:21:00,62.1,44.0,29.95,WNW,301,2.0,10.0,51,0.00,,,0.00,weatherlink.com 1.10,2013-03-02 21:21:00,
2013-03-02 16:36:00,62.1,44.0,29.95,NW,307,0.0,7.0,51,0.00,,,0.00,weatherlink.com 1.10,2013-03-02 21:36:00,
2013-03-02 16:51:00,61.4,44.0,29.95,NNW,331,2.0,8.0,54,0.00,,,0.00,weatherlink.com 1.10,2013-03-02 21:51:00,
2013-03-02 17:06:00,61.6,44.0,29.95,North,9,0.0,6.0,53,0.00,,,0.00,weatherlink.com 1.10,2013-03-02 22:06:00,
2013-03-02 17:21:00,61.3,44.0,29.95,WNW,301,3.0,8.0,53,0.00,,,0.00,weatherlink.com 1.10,2013-03-02 22:21:00,
2013-03-02 17:36:00,61.1,44.0,29.96,WNW,302,2.0,8.0,54,0.00,,,0.00,weatherlink.com 1.10,2013-03-02 22:36:00,
2013-03-02 17:51:00,60.5,43.0,29.96,WNW,287,1.0,9.0,53,0.00,,,0.00,weatherlink.com 1.10,2013-03-02 22:51:00,
2013-03-02 18:06:00,59.4,44.0,29.97,NW,317,1.0,7.0,58,0.00,,,0.00,weatherlink.com 1.10,2013-03-02 23:06:00,
2013-03-02 18:21:00,58.3,44.0,29.98,WSW,245,2.0,7.0,60,0.00,,,0.00,weatherlink.com 1.10,2013-03-02 23:21:00,
2013-03-02 18:36:00,57.4,43.0,29.98,NW,323,1.0,8.0,58,0.00,,,0.00,weatherlink.com 1.10,2013-03-02 23:36:00,
2013-03-02 18:51:00,56.7,43.0,29.98,NE,56,1.0,7.0,60,0.00,,,0.00,weatherlink.com 1.10,2013-03-02 23:51:00,
2013-03-02 19:06:00,56.4,43.0,29.99,WNW,287,0.0,4.0,62,0.00,,,0.00,weatherlink.com 1.10,2013-03-03 00:06:00,
2013-03-02 19:21:00,56.2,44.0,30.00,WNW,294,0.0,6.0,64,0.00,,,0.00,weatherlink.com 1.10,2013-03-03 00:21:00,
2013-03-02 19:37:00,56.1,43.0,30.00,WNW,296,1.0,6.0,63,0.00,,,0.00,weatherlink.com 1.10,2013-03-03 00:37:00,
2013-03-02 19:52:00,55.9,44.0,30.01,West,278,0.0,7.0,64,0.00,,,0.00,weatherlink.com 1.10,2013-03-03 00:52:00,
2013-03-02 20:07:00,55.7,44.0,30.01,NNE,23,0.0,4.0,64,0.00,,,0.00,weatherlink.com 1.10,2013-03-03 01:07:00,
2013-03-02 20:22:00,55.3,44.0,30.01,West,270,0.0,1.0,66,0.00,,,0.00,weatherlink.com 1.10,2013-03-03 01:22:00,
2013-03-02 20:37:00,54.8,45.0,30.01,WNW,298,0.0,1.0,69,0.00,,,0.00,weatherlink.com 1.10,2013-03-03 01:37:00,
2013-03-02 20:52:00,54.1,45.0,30.01,NE,36,0.0,1.0,71,0.00,,,0.00,weatherlink.com 1.10,2013-03-03 01:52:00,
2013-03-02 21:07:00,53.8,45.0,30.01,WSW,245,0.0,1.0,73,0.00,,,0.00,weatherlink.com 1.10,2013-03-03 02:07:00,
2013-03-02 21:22:00,53.8,45.0,30.01,West,270,0.0,1.0,73,0.00,,,0.00,weatherlink.com 1.10,2013-03-03 02:22:00,
2013-03-02 21:37:00,53.7,45.0,30.02,ESE,110,0.0,1.0,73,0.00,,,0.00,weatherlink.com 1.10,2013-03-03 02:37:00,
2013-03-02 21:52:00,53.4,45.0,30.02,ESE,106,0.0,1.0,74,0.00,,,0.00,weatherlink.com 1.10,2013-03-03 02:52:00,
2013-03-02 22:07:00,52.8,46.0,30.01,ESE,107,1.0,1.0,77,0.00,,,0.00,weatherlink.com 1.10,2013-03-03 03:07:00,
2013-03-02 22:22:00,51.9,45.0,30.01,SSE,147,0.0,0.0,77,0.00,,,0.00,weatherlink.com 1.10,2013-03-03 03:22:00,
2013-03-02 22:37:00,50.9,44.0,30.01,East,97,0.0,0.0,78,0.00,,,0.00,weatherlink.com 1.10,2013-03-03 03:37:00,
2013-03-02 22:52:00,50.4,44.0,30.01,WNW,298,0.0,1.0,80,0.00,,,0.00,weatherlink.com 1.10,2013-03-03 03:52:00,
2013-03-02 23:07:00,50.3,44.0,30.01,West,280,0.0,1.0,79,0.00,,,0.00,weatherlink.com 1.10,2013-03-03 04:07:00,
2013-03-02 23:22:00,50.6,44.0,30.00,West,270,0.0,1.0,78,0.00,,,0.00,weatherlink.com 1.10,2013-03-03 04:22:00,
2013-03-02 23:37:00,50.2,44.0,30.00,East,83,0.0,1.0,79,0.00,,,0.00,weatherlink.com 1.10,2013-03-03 04:37:00,
2013-03-02 23:52:00,49.2,44.0,30.00,ESE,102,0.0,1.0,81,0.00,,,0.00,weatherlink.com 1.10,2013-03-03 04:52:00,